Change the Weather History Date:

Monday, February 27, 2012

  Actual Average Record
Temperature  
Mean Temperature 26 °F -  
Max Temperature 35 °F 41 °F 66 °F (1976)
Min Temperature 17 °F 24 °F -13 °F (2015)
Degree Days  
Heating Degree Days 39    
Moisture  
Dew Point 15 °F    
Average Humidity 64    
Maximum Humidity 79    
Minimum Humidity 48    
Precipitation  
Precipitation 0.00 in - - ()
Sea Level Pressure  
Sea Level Pressure 30.45 in    
Wind  
Wind Speed 11 mph (NW)    
Max Wind Speed 21 mph    
Max Gust Speed 25 mph    
Visibility 10 miles    
Events      
Averages and records for this station are not official NWS values.
T = Trace of Precipitation, MM = Missing Value Source: NWS Daily Summary

Daily Weather History Graph

Daily Weather History Graph

Search for Another Location

Airport or City:

Trip Planner

Search our weather history database for the weather conditions in past years. The results will help you decide how hot, cold, wet, or windy it might be!

Date:

Astronomy

Feb. 27, 2012 Rise Set
Actual Time 6:59 AM CST 6:08 PM CST
Civil Twilight 6:31 AM CST 6:36 PM CST
Nautical Twilight 5:59 AM CST 7:09 PM CST
Astronomical Twilight 5:27 AM CST 7:41 PM CST
Moon 9:24 AM CST (2/27) No Moon Set
Length of Visible Light 12h 04m
Length of Day
11h 09m
Waxing Crescent, 29% of the Moon is Illuminated
Feb 27
Waxing Crescent
Feb 29
First Quarter
Mar 8
Full
Mar 14
Last Quarter
Mar 22
New

Hourly Weather History & Observations

Time (CST) Temp. Windchill Dew Point Humidity Pressure Visibility Wind Dir Wind Speed Gust Speed Precip Events Conditions
12:15 AM 26.6 °F 14.7 °F 15.8 °F 64% 30.30 in 10.0 mi NW 15.0 mph - N/A   Clear
12:35 AM 26.6 °F 15.7 °F 14.0 °F 59% 30.32 in 10.0 mi NW 12.7 mph 21.9 mph N/A   Clear
12:55 AM 24.8 °F 10.3 °F 14.0 °F 64% 30.33 in 10.0 mi WNW 20.7 mph - N/A   Clear
1:15 AM 24.8 °F 12.4 °F 14.0 °F 64% 30.34 in 10.0 mi NW 15.0 mph 25.3 mph N/A   Clear
1:35 AM 24.8 °F 11.5 °F 14.0 °F 64% 30.35 in 10.0 mi NW 17.3 mph 20.7 mph N/A   Clear
1:55 AM 24.8 °F 13.4 °F 14.0 °F 64% 30.36 in 10.0 mi NW 12.7 mph - N/A   Clear
2:15 AM 23.0 °F 11.7 °F 14.0 °F 68% 30.36 in 10.0 mi WNW 11.5 mph 18.4 mph N/A   Clear
2:35 AM 23.0 °F 9.2 °F 12.2 °F 63% 30.37 in 10.0 mi WNW 17.3 mph 20.7 mph N/A   Clear
2:55 AM 23.0 °F 9.2 °F 14.0 °F 68% 30.38 in 10.0 mi NW 17.3 mph 21.9 mph N/A   Clear
3:15 AM 23.0 °F 10.6 °F 12.2 °F 63% 30.38 in 10.0 mi NW 13.8 mph 19.6 mph N/A   Clear
3:35 AM 21.2 °F 7.8 °F 12.2 °F 68% 30.39 in 10.0 mi NW 15.0 mph - N/A   Clear
3:55 AM 21.2 °F 9.5 °F 12.2 °F 68% 30.39 in 10.0 mi NW 11.5 mph - N/A   Clear
4:15 AM 21.2 °F 8.3 °F 12.2 °F 68% 30.40 in 10.0 mi NW 13.8 mph - N/A   Clear
4:35 AM 21.2 °F 10.1 °F 12.2 °F 68% 30.41 in 10.0 mi NW 10.4 mph - N/A   Clear
4:55 AM 21.2 °F 8.3 °F 12.2 °F 68% 30.42 in 10.0 mi NW 13.8 mph - N/A   Clear
5:15 AM 19.4 °F 8.6 °F 12.2 °F 74% 30.43 in 10.0 mi NW 9.2 mph 12.7 mph N/A   Clear
5:35 AM 19.4 °F 5.0 °F 10.4 °F 68% 30.43 in 10.0 mi NW 16.1 mph - N/A   Clear
5:55 AM 19.4 °F 11.5 °F 10.4 °F 68% 30.46 in 10.0 mi NW 5.8 mph - N/A   Clear
6:15 AM 19.4 °F 6.6 °F 12.2 °F 74% 30.45 in 10.0 mi NW 12.7 mph - N/A   Clear
6:35 AM 19.4 °F 14.3 °F 10.4 °F 68% 30.46 in 10.0 mi NW 3.5 mph - N/A   Clear
6:55 AM 17.6 °F 6.4 °F 12.2 °F 79% 30.46 in 10.0 mi NW 9.2 mph - N/A   Clear
7:15 AM 17.6 °F - 10.4 °F 73% 30.47 in 10.0 mi Calm Calm - N/A   Clear
7:35 AM 19.4 °F 10.4 °F 12.2 °F 74% 30.47 in 10.0 mi NW 6.9 mph - N/A   Clear
7:55 AM 19.4 °F 6.6 °F 12.2 °F 74% 30.49 in 10.0 mi WNW 12.7 mph - N/A   Clear
8:15 AM 19.4 °F 6.0 °F 12.2 °F 74% 30.50 in 10.0 mi NW 13.8 mph - N/A   Clear
8:35 AM 21.2 °F 10.1 °F 12.2 °F 68% 30.52 in 10.0 mi WNW 10.4 mph - N/A   Clear
8:55 AM 21.2 °F 10.9 °F 14.0 °F 74% 30.53 in 10.0 mi NW 9.2 mph - N/A   Clear
9:15 AM 21.2 °F 10.9 °F 14.0 °F 74% 30.53 in 10.0 mi NW 9.2 mph - N/A   Clear
9:35 AM 23.0 °F 14.7 °F 14.0 °F 68% 30.53 in 10.0 mi NW 6.9 mph - N/A   Clear
9:55 AM 24.8 °F 16.9 °F 15.8 °F 69% 30.54 in 10.0 mi West 6.9 mph - N/A   Clear
10:15 AM 24.8 °F 16.1 °F 15.8 °F 69% 30.54 in 10.0 mi WNW 8.1 mph - N/A   Scattered Clouds
10:35 AM 24.8 °F 15.3 °F 15.8 °F 69% 30.54 in 10.0 mi WNW 9.2 mph - N/A   Scattered Clouds
10:55 AM 26.6 °F 17.5 °F 15.8 °F 64% 30.54 in 10.0 mi West 9.2 mph - N/A   Clear
11:15 AM 26.6 °F 17.5 °F 15.8 °F 64% 30.54 in 10.0 mi NW 9.2 mph - N/A   Clear
11:35 AM 26.6 °F 18.2 °F 15.8 °F 64% 30.54 in 10.0 mi WNW 8.1 mph - N/A   Clear
11:55 AM 28.4 °F 21.2 °F 17.6 °F 64% 30.54 in 10.0 mi West 6.9 mph - N/A   Clear
12:15 PM 28.4 °F 21.2 °F 15.8 °F 59% 30.53 in 10.0 mi WNW 6.9 mph - N/A   Clear
12:35 PM 30.2 °F 24.3 °F 17.6 °F 60% 30.51 in 10.0 mi NW 5.8 mph - N/A   Clear
12:55 PM 30.2 °F 23.4 °F 17.6 °F 60% 30.52 in 10.0 mi WNW 6.9 mph - N/A   Clear
1:15 PM 30.2 °F - 17.6 °F 60% 30.50 in 10.0 mi Calm Calm - N/A   Clear
1:35 PM 30.2 °F 25.4 °F 17.6 °F 60% 30.50 in 10.0 mi North 4.6 mph - N/A   Clear
1:55 PM 32.0 °F 27.5 °F 17.6 °F 55% 30.48 in 10.0 mi North 4.6 mph - N/A   Clear
2:15 PM 33.8 °F - 17.6 °F 52% 30.47 in 10.0 mi Calm Calm - N/A   Clear
2:35 PM 33.8 °F 29.6 °F 19.4 °F 56% 30.47 in 10.0 mi NNE 4.6 mph - N/A   Clear
2:55 PM 33.8 °F - 17.6 °F 52% 30.46 in 10.0 mi Calm Calm - N/A   Clear
3:15 PM 35.6 °F 31.7 °F 19.4 °F 52% 30.46 in 10.0 mi East 4.6 mph - N/A   Clear
3:35 PM 35.6 °F 31.7 °F 19.4 °F 52% 30.46 in 10.0 mi East 4.6 mph - N/A   Clear
3:55 PM 35.6 °F - 19.4 °F 52% 30.46 in 10.0 mi Calm Calm - N/A   Clear
4:15 PM 35.6 °F 32.8 °F 19.4 °F 52% 30.46 in 10.0 mi SE 3.5 mph - N/A   Clear
4:35 PM 35.6 °F 32.8 °F 17.6 °F 48% 30.45 in 10.0 mi SE 3.5 mph - N/A   Clear
4:55 PM 35.6 °F 31.7 °F 19.4 °F 52% 30.44 in 10.0 mi SE 4.6 mph - N/A   Clear
5:15 PM 35.6 °F 31.7 °F 19.4 °F 52% 30.44 in 10.0 mi SE 4.6 mph - N/A   Clear
5:35 PM 35.6 °F 30.7 °F 19.4 °F 52% 30.43 in 10.0 mi ESE 5.8 mph - N/A   Clear
5:55 PM 33.8 °F 27.7 °F 21.2 °F 60% 30.42 in 10.0 mi ESE 6.9 mph - N/A   Clear
6:15 PM 33.8 °F 29.6 °F 21.2 °F 60% 30.41 in 10.0 mi ESE 4.6 mph - N/A   Clear
6:35 PM 30.2 °F 25.4 °F 21.2 °F 69% 30.41 in 10.0 mi East 4.6 mph - N/A   Clear
6:55 PM 32.0 °F - 21.2 °F 64% 30.42 in 10.0 mi Calm Calm - N/A   Clear
7:15 PM 30.2 °F 26.7 °F 21.2 °F 69% 30.42 in 10.0 mi ESE 3.5 mph - N/A   Scattered Clouds
7:35 PM 30.2 °F 25.4 °F 21.2 °F 69% 30.41 in 10.0 mi ESE 4.6 mph - N/A   Scattered Clouds
7:55 PM 30.2 °F 24.3 °F 21.2 °F 69% 30.40 in 10.0 mi SE 5.8 mph - N/A   Overcast
8:15 PM 30.2 °F 24.3 °F 21.2 °F 69% 30.39 in 10.0 mi SE 5.8 mph - N/A   Mostly Cloudy
8:35 PM 30.2 °F 23.4 °F 21.2 °F 69% 30.38 in 10.0 mi ESE 6.9 mph - N/A   Mostly Cloudy
8:55 PM 32.0 °F 27.5 °F 21.2 °F 64% 30.38 in 10.0 mi SE 4.6 mph - N/A   Overcast
9:15 PM 30.2 °F 24.3 °F 23.0 °F 75% 30.36 in 10.0 mi East 5.8 mph - N/A   Overcast
9:35 PM 32.0 °F 24.2 °F 21.2 °F 64% 30.35 in 10.0 mi ESE 9.2 mph - N/A   Scattered Clouds
9:55 PM 32.0 °F 24.2 °F 21.2 °F 64% 30.36 in 10.0 mi SE 9.2 mph - N/A   Mostly Cloudy
10:15 PM 32.0 °F 24.2 °F 21.2 °F 64% 30.36 in 10.0 mi SE 9.2 mph - N/A   Mostly Cloudy
10:35 PM 32.0 °F 25.6 °F 21.2 °F 64% 30.36 in 10.0 mi SE 6.9 mph - N/A   Overcast
10:55 PM 32.0 °F 23.6 °F 21.2 °F 64% 30.34 in 10.0 mi SE 10.4 mph - N/A   Overcast
11:15 PM 32.0 °F 22.1 °F 21.2 °F 64% 30.33 in 10.0 mi SSE 13.8 mph - N/A   Mostly Cloudy
11:35 PM 33.8 °F 25.8 °F 21.2 °F 60% 30.32 in 10.0 mi SE 10.4 mph - N/A   Overcast
11:55 PM 33.8 °F 25.8 °F 21.2 °F 60% 30.32 in 10.0 mi SE 10.4 mph 17.3 mph N/A   Overcast